Weather in Istanbul

Turkey     41°00′31″N   28°58′02″E
temp.,
°C
wind,
m/s
gust,
m/s
humid.,
%
clouds,
%
prec.,
mm/h
press.,
hPa
HPBL,
m
17 april, sat
sat1700:00+9e4977100 0.4 1020359
03:00+9ene51084100 1.4 1020397
06:00+9ene61283100 0.0 1018491
09:00+10ene71276100 0.0 1018541
12:00+10ene81376100 0.6 1017482
15:00+14ne796393 0.6 1015461
18:00+12ne7977100 0.0 1013380
21:00+10ne6988100 0.0 1013296
18 april, sun
sun1800:00+10nne589199 0.0 1013271
03:00+10nne359251 0.0 1014251
06:00+10nne349257 0.0 1014230
09:00+12nne228310 0.0 1015186
12:00+15wnw0169100 0.0 1014296
15:00+16wsw1267100 0.0 1014282
18:00+15w1273100 0.1 1014188
21:00+14ene1178100 0.2 101531
19 april, mon
mon1900:00+14ese1187100 0.5 101527
03:00+13e2294100 0.9 101433
06:00+13e2297100 5.4 101241
09:00+14ne2295100 6.0 101159
12:00+15ne1288100 0.8 1010137
15:00+15s31089100 3.3 1010786
18:00+13ssw81591100 4.4 1008624
21:00+12ssw51192100 10.3 1007570
20 april, tue
tue2000:00+11wsw6119373 0.6 1007484
03:00+11wsw4895100 3.0 1007413
06:00+10w41091100 1.6 1008523
09:00+10w61082100 1.8 1010732
12:00+12wsw697056 0.0 1013964
15:00+14wsw556321 0.0 1013976
18:00+13sw34661 0.0 1014449
21:00+12sse12673 0.0 101557
21 april, wed
wed2100:00+11se22700 0.0 101645
03:00+11sse22750 0.0 101618
06:00+10sw228516 0.0 101622
09:00+13sw34723 0.0 1018260
12:00+15sw34562 0.0 1019610
15:00+16wsw454950 0.0 1018924
18:00+16wsw355213 0.0 1018753
21:00+14nw11700 0.0 102031